Freeport, IL

12:31 AM CST on December 12, 2019 (GMT -0600)
Albertus

Weather History for KFEP - October, 2019

Change the Weather History Date:

Friday, October 11, 2019

  Actual Average Record
Temperature  
Mean Temperature 50 °F -  
Max Temperature 64 °F 60 °F 82 °F (2010)
Min Temperature 36 °F 38 °F 24 °F (1987)
Degree Days  
Heating Degree Days 15    
Moisture  
Dew Point 42 °F    
Average Humidity 84    
Maximum Humidity 100    
Minimum Humidity 55    
Precipitation  
Precipitation 0.41 in - - ()
Sea Level Pressure  
Sea Level Pressure 29.93 in    
Wind  
Wind Speed 12 mph (WSW)    
Max Wind Speed 21 mph    
Max Gust Speed 30 mph    
Visibility 8 miles    
Events Rain    
Averages and records for this station are not official NWS values.
T = Trace of Precipitation, MM = Missing Value Source: NWS Daily Summary

Daily Weather History Graph

Daily Weather History Graph

Search for Another Location

Airport or City:

Astronomy

Oct. 11, 2019 Rise Set
Actual Time 7:06 AM CDT 6:23 PM CDT
Civil Twilight 6:38 AM CDT 6:51 PM CDT
Nautical Twilight 6:05 AM CDT 7:23 PM CDT
Astronomical Twilight 5:33 AM CDT 7:56 PM CDT
Moon 5:55 PM CDT (10/11) 4:42 AM CDT (10/11)
Length of Visible Light 12h 13m
Length of Day
11h 17m
Waxing Gibbous, 96% of the Moon is Illuminated
Oct 11
Waxing Gibbous
Oct 13
Full
Oct 21
Last Quarter
Oct 27
New
Nov 4
First Quarter

Hourly Weather History & Observations

Time (CDT) Temp. Windchill Dew Point Humidity Pressure Visibility Wind Dir Wind Speed Gust Speed Precip Events Conditions
12:15 AM 63.1 °F - 63.1 °F 100% 29.85 in 10.0 mi SSE 8.1 mph - N/A   Scattered Clouds
12:35 AM 63.1 °F - 63.1 °F 100% 29.84 in 10.0 mi SSE 8.1 mph - N/A   Mostly Cloudy
12:55 AM 63.0 °F - 63.0 °F 100% 29.83 in 10.0 mi SSE 6.9 mph - N/A   Overcast
1:15 AM 63.1 °F - 63.1 °F 100% 29.83 in 7.0 mi SSE 9.2 mph - N/A Rain Rain
1:35 AM 63.1 °F - 63.1 °F 100% 29.82 in 4.0 mi SSE 9.2 mph - 0.08 in Rain Light Rain
1:55 AM 63.7 °F - 63.7 °F 100% 29.82 in 10.0 mi SSE 8.1 mph - 0.08 in   Overcast
2:15 AM 63.9 °F - 63.9 °F 100% 29.82 in 10.0 mi SSE 9.2 mph - N/A   Overcast
2:35 AM 63.9 °F - 63.9 °F 100% 29.81 in 10.0 mi SSE 8.1 mph - N/A   Overcast
2:55 AM 63.9 °F - 63.9 °F 100% 29.80 in 10.0 mi South 9.2 mph - N/A   Overcast
3:15 AM 64.0 °F - 64.0 °F 100% 29.80 in 10.0 mi South 10.4 mph - N/A Rain Light Rain
3:35 AM 64.0 °F - 64.0 °F 100% 29.80 in 5.0 mi South 10.4 mph 16.1 mph 0.11 in Rain Light Rain
3:55 AM 64.0 °F - 64.0 °F 100% 29.80 in 4.0 mi South 10.4 mph - 0.11 in   Overcast
4:15 AM 63.9 °F - 63.9 °F 100% 29.80 in 3.0 mi South 9.2 mph - N/A   Overcast
4:35 AM 63.7 °F - 63.7 °F 100% 29.80 in 3.0 mi South 9.2 mph - N/A   Overcast
4:55 AM 63.7 °F - 63.7 °F 100% 29.79 in 5.0 mi South 9.2 mph - N/A   Overcast
5:15 AM 62.6 °F - 62.6 °F 100% 29.80 in 2.5 mi SW 17.3 mph 23.0 mph 0.01 in Rain Light Rain
5:35 AM 57.6 °F - 57.6 °F 100% 29.82 in 2.5 mi WSW 13.8 mph 23.0 mph 0.01 in   Overcast
5:55 AM 55.2 °F - 55.2 °F 100% 29.83 in 3.0 mi WSW 12.7 mph 18.4 mph 0.02 in   Overcast
6:15 AM 53.1 °F - 53.1 °F 100% 29.85 in 2.0 mi WSW 13.8 mph 18.4 mph N/A Rain Light Rain
6:35 AM 50.9 °F - 50.9 °F 100% 29.85 in 2.5 mi WSW 11.5 mph 19.6 mph 0.01 in   Overcast
6:55 AM 48.7 °F - 48.7 °F 100% 29.86 in 3.0 mi West 18.4 mph 24.2 mph 0.02 in Rain Light Rain
7:15 AM 47.3 °F - 47.3 °F 100% 29.87 in 4.0 mi West 15.0 mph 23.0 mph N/A   Overcast
7:35 AM 46.9 °F - 46.9 °F 100% 29.89 in 10.0 mi West 12.7 mph 19.6 mph N/A   Overcast
7:55 AM 46.4 °F 40.1 °F 46.4 °F 100% 29.89 in 7.0 mi West 15.0 mph 20.7 mph N/A   Overcast
8:15 AM 45.5 °F 39.6 °F 45.5 °F 100% 29.91 in 2.0 mi West 12.7 mph 18.4 mph 0.01 in Rain Rain
8:35 AM 44.1 °F 38.6 °F 44.1 °F 100% 29.90 in 1.8 mi West 10.4 mph - 0.12 in Rain Heavy Rain
8:55 AM 43.7 °F 36.9 °F 43.7 °F 100% 29.91 in 4.0 mi West 13.8 mph 21.9 mph 0.16 in Rain Light Rain
9:15 AM 43.2 °F 35.6 °F 43.0 °F 99% 29.91 in 10.0 mi West 16.1 mph 20.7 mph N/A   Overcast
9:35 AM 43.5 °F 36.7 °F 42.8 °F 97% 29.90 in 10.0 mi West 13.8 mph 17.3 mph N/A   Overcast
9:55 AM 43.7 °F 36.6 °F 42.8 °F 97% 29.90 in 10.0 mi West 15.0 mph - N/A   Overcast
10:15 AM 43.2 °F 35.9 °F 41.4 °F 93% 29.92 in 10.0 mi West 15.0 mph 20.7 mph N/A   Overcast
10:35 AM 41.7 °F 34.8 °F 41.7 °F 100% 29.93 in 1.5 mi West 12.7 mph 23.0 mph N/A   Overcast
10:55 AM 41.4 °F 34.0 °F 40.6 °F 97% 29.94 in 10.0 mi West 13.8 mph 23.0 mph N/A   Overcast
11:15 AM 41.0 °F 33.9 °F 40.1 °F 97% 29.94 in 10.0 mi West 12.7 mph 25.3 mph N/A   Overcast
11:35 AM 40.5 °F 32.8 °F 39.0 °F 95% 29.94 in 10.0 mi West 13.8 mph 20.7 mph N/A   Overcast
11:55 AM 40.5 °F 33.2 °F 38.1 °F 91% 29.94 in 10.0 mi West 12.7 mph 20.7 mph N/A   Overcast
12:15 PM 40.1 °F 32.4 °F 38.5 °F 94% 29.95 in 10.0 mi West 13.8 mph 19.6 mph N/A   Overcast
12:35 PM 39.6 °F 31.7 °F 37.9 °F 94% 29.96 in 7.0 mi West 13.8 mph 24.2 mph N/A Rain Light Rain
12:55 PM 39.6 °F 32.1 °F 37.9 °F 94% 29.95 in 5.0 mi West 12.7 mph 19.6 mph 0.02 in Rain Light Rain
1:15 PM 40.5 °F 32.8 °F 37.9 °F 91% 29.96 in 7.0 mi West 13.8 mph 21.9 mph N/A   Overcast
1:35 PM 40.8 °F 34.1 °F 37.4 °F 88% 29.95 in 10.0 mi West 11.5 mph 16.1 mph N/A   Overcast
1:55 PM 41.9 °F 36.3 °F 35.2 °F 77% 29.95 in 10.0 mi West 9.2 mph 20.7 mph N/A   Overcast
2:15 PM 42.8 °F 34.5 °F 34.5 °F 73% 29.95 in 10.0 mi WNW 18.4 mph 24.2 mph N/A   Overcast
2:35 PM 41.5 °F 33.5 °F 33.6 °F 73% 29.96 in 10.0 mi West 16.1 mph 24.2 mph N/A   Overcast
2:55 PM 41.4 °F 32.1 °F 32.4 °F 70% 29.96 in 10.0 mi West 20.7 mph 27.6 mph N/A   Overcast
3:15 PM 42.4 °F 33.8 °F 32.2 °F 67% 29.97 in 10.0 mi West 19.6 mph 25.3 mph N/A   Overcast
3:35 PM 41.2 °F 33.7 °F 32.0 °F 70% 29.97 in 10.0 mi West 13.8 mph 25.3 mph N/A   Overcast
3:55 PM 40.1 °F 30.7 °F 31.1 °F 70% 29.98 in 10.0 mi West 19.6 mph 25.3 mph N/A   Overcast
4:15 PM 40.1 °F 32.7 °F 31.1 °F 70% 29.98 in 10.0 mi West 12.7 mph 21.9 mph N/A   Overcast
4:35 PM 40.5 °F 33.2 °F 31.1 °F 69% 29.98 in 10.0 mi West 12.7 mph 20.7 mph N/A   Overcast
4:55 PM 40.3 °F 31.3 °F 29.1 °F 64% 29.99 in 10.0 mi West 18.4 mph 26.5 mph N/A   Overcast
5:15 PM 40.1 °F 31.6 °F 27.7 °F 61% 30.00 in 10.0 mi West 16.1 mph 26.5 mph N/A   Overcast
5:35 PM 40.1 °F 31.0 °F 27.9 °F 62% 30.00 in 10.0 mi West 18.4 mph 24.2 mph N/A   Overcast
5:55 PM 40.1 °F 32.7 °F 27.9 °F 62% 30.01 in 10.0 mi West 12.7 mph 20.7 mph N/A   Overcast
6:15 PM 39.6 °F 30.3 °F 29.1 °F 66% 30.01 in 10.0 mi West 18.4 mph 24.2 mph N/A   Overcast
6:35 PM 39.2 °F 31.2 °F 27.9 °F 64% 30.02 in 10.0 mi West 13.8 mph 23.0 mph N/A   Overcast
6:55 PM 39.2 °F 30.8 °F 26.6 °F 61% 30.03 in 10.0 mi West 15.0 mph 21.9 mph N/A   Overcast
7:15 PM 39.2 °F 32.0 °F 27.5 °F 63% 30.04 in 10.0 mi West 11.5 mph 17.3 mph N/A   Overcast
7:35 PM 38.7 °F 29.8 °F 26.2 °F 61% 30.04 in 10.0 mi West 16.1 mph 26.5 mph N/A   Overcast
7:55 PM 38.5 °F 32.1 °F 25.9 °F 61% 30.04 in 10.0 mi West 9.2 mph 21.9 mph N/A   Overcast
8:15 PM 38.3 °F 29.7 °F 26.4 °F 62% 30.04 in 10.0 mi West 15.0 mph 19.6 mph N/A   Overcast
8:35 PM 38.3 °F 29.3 °F 24.8 °F 58% 30.05 in 10.0 mi West 16.1 mph 24.2 mph N/A   Overcast
8:55 PM 37.9 °F 30.0 °F 24.3 °F 58% 30.05 in 10.0 mi West 12.7 mph 23.0 mph N/A   Overcast
9:15 PM 36.9 °F 29.6 °F 24.1 °F 60% 30.05 in 10.0 mi West 10.4 mph 16.1 mph N/A   Mostly Cloudy
9:35 PM 36.7 °F 29.9 °F 25.3 °F 64% 30.05 in 10.0 mi WSW 9.2 mph - N/A   Mostly Cloudy
9:55 PM 37.4 °F 32.1 °F 25.7 °F 63% 30.04 in 10.0 mi WSW 6.9 mph - N/A   Overcast
10:15 PM 37.4 °F 29.3 °F 26.4 °F 65% 30.04 in 10.0 mi WSW 12.7 mph 19.6 mph N/A   Overcast
10:35 PM 37.6 °F 30.0 °F 26.2 °F 64% 30.04 in 10.0 mi WSW 11.5 mph 17.3 mph N/A   Overcast
10:55 PM 37.8 °F 29.8 °F 26.4 °F 64% 30.04 in 10.0 mi WSW 12.7 mph 19.6 mph N/A   Overcast
11:15 PM 37.6 °F 30.5 °F 26.6 °F 65% 30.03 in 10.0 mi WSW 10.4 mph 17.3 mph N/A   Overcast
11:35 PM 37.6 °F 28.1 °F 26.1 °F 63% 30.03 in 10.0 mi WSW 17.3 mph 29.9 mph N/A   Overcast
11:55 PM 37.6 °F 28.8 °F 22.6 °F 55% 30.03 in 10.0 mi West 15.0 mph 27.6 mph N/A   Overcast